Location: El Escondido
(32.5691°N, 116.4250°W)
Time: 08:52:54
(UTC+00:00)

Cosmos 1707 - Pass Details

Date: 13 April 2024
Orbit: 476 x 487 km, 82.5° (Epoch: 22 May)

Event Time Altitude Azimuth Distance (km) Brightness Sun altitude
Rises 12:10:41 0° 173° (S) 2,528 6.1 -14.4°
Reaches altitude 10° 12:12:49 10° 167° (SSE) 1,657 5.2 -14.0°
Maximum altitude 12:16:17 45° 93° (E) 666 3.7 -13.3°
Drops below altitude 10° 12:19:48 10° 20° (NNE) 1,679 5.9 -12.6°
Sets 12:21:58 0° 14° (NNE) 2,568 6.7 -12.2°
